Weather History for Morris, MN

Change the Weather History Date:

Friday, February 7, 2014

  Actual Average Record
Temperature  
Mean Temperature 0 °F -  
Max Temperature 12 °F 23 °F 55 °F (1997)
Min Temperature -11 °F 5 °F -20 °F (2007)
Degree Days  
Heating Degree Days 64    
Moisture  
Dew Point -9 °F    
Average Humidity 68    
Maximum Humidity 85    
Minimum Humidity 52    
Precipitation  
Precipitation 0.00 in - - ()
Sea Level Pressure  
Sea Level Pressure 30.08 in    
Wind  
Wind Speed 9 mph (SW)    
Max Wind Speed 18 mph    
Max Gust Speed 23 mph    
Visibility 10 miles    
Events      
Averages and records for this station are not official NWS values.
T = Trace of Precipitation, MM = Missing Value Source: NWS Daily Summary

Daily Weather History Graph

Daily Weather History Graph

Search for Another Location

Airport:

Trip Planner

Search our weather history database for the weather conditions in past years. The results will help you decide how hot, cold, wet, or windy it might be!

Date:

Astronomy

Feb. 07, 2014 Rise Set
Actual Time 7:37 AM CST 5:39 PM CST
Civil Twilight 7:06 AM CST 6:10 PM CST
Nautical Twilight 6:31 AM CST 6:45 PM CST
Astronomical Twilight 5:56 AM CST 7:20 PM CST
Moon 11:48 AM CST (2/7) 1:56 AM CST (2/7)
Length of Visible Light 11h 04m
Length of Day
10h 01m
First Quarter, 59% of the Moon is Illuminated
Feb 7
First Quarter
Feb 14
Full
Feb 22
Last Quarter
Mar 1
New
Mar 8
First Quarter

Hourly Weather History & Observations

Time (CST) Temp. Windchill Dew Point Humidity Pressure Visibility Wind Dir Wind Speed Gust Speed Precip Events Conditions
12:18 AM -4.0 °F -21.2 °F -11.2 °F 71% 30.14 in 10.0 mi WSW 10.4 mph - N/A   Clear
12:38 AM -5.8 °F -23.4 °F -11.2 °F 77% 30.14 in 10.0 mi WSW 10.4 mph - N/A   Clear
12:58 AM -5.8 °F -23.4 °F -11.2 °F 77% 30.14 in 10.0 mi WSW 10.4 mph - N/A   Clear
1:18 AM -5.8 °F -22.4 °F -11.2 °F 77% 30.13 in 10.0 mi SW 9.2 mph - N/A   Clear
1:38 AM -7.6 °F -24.6 °F -13.0 °F 77% 30.12 in 10.0 mi WSW 9.2 mph - N/A   Clear
1:58 AM -7.6 °F -23.4 °F -14.8 °F 71% 30.12 in 10.0 mi WSW 8.1 mph - N/A   Clear
2:18 AM -7.6 °F -25.7 °F -13.0 °F 77% 30.11 in 10.0 mi WSW 10.4 mph - N/A   Clear
2:38 AM -5.8 °F -24.4 °F -13.0 °F 71% 30.11 in 10.0 mi WSW 11.5 mph - N/A   Clear
2:58 AM -5.8 °F -23.4 °F -13.0 °F 71% 30.10 in 10.0 mi SW 10.4 mph - N/A   Clear
3:18 AM -5.8 °F -23.4 °F -14.8 °F 65% 30.10 in 10.0 mi SW 10.4 mph - N/A   Clear
3:38 AM -7.6 °F -26.6 °F -14.8 °F 71% 30.10 in 10.0 mi SW 11.5 mph - N/A   Clear
3:58 AM -5.8 °F -26.8 °F -13.0 °F 71% 30.10 in 10.0 mi SW 15.0 mph - N/A   Clear
4:18 AM -7.6 °F -24.6 °F -14.8 °F 71% 30.10 in 10.0 mi SW 9.2 mph - N/A   Clear
4:38 AM -7.6 °F -25.7 °F -14.8 °F 71% 30.10 in 10.0 mi SW 10.4 mph - N/A   Clear
4:58 AM -7.6 °F -24.6 °F -14.8 °F 71% 30.09 in 10.0 mi SW 9.2 mph - N/A   Clear
5:18 AM -9.4 °F -25.6 °F -14.8 °F 77% 30.09 in 10.0 mi SW 8.1 mph - N/A   Clear
5:38 AM -9.4 °F -24.3 °F -16.6 °F 71% 30.09 in 10.0 mi SW 6.9 mph - N/A   Clear
5:58 AM -9.4 °F -24.3 °F -16.6 °F 71% 30.09 in 10.0 mi WSW 6.9 mph - N/A   Clear
6:18 AM -11.2 °F -24.8 °F -18.4 °F 70% 30.08 in 10.0 mi WSW 5.8 mph - N/A   Clear
6:38 AM -11.2 °F -24.8 °F -18.4 °F 70% 30.08 in 10.0 mi West 5.8 mph - N/A   Clear
6:58 AM -11.2 °F -23.0 °F -18.4 °F 70% 30.08 in 10.0 mi SW 4.6 mph - N/A   Clear
7:18 AM -11.2 °F -24.8 °F -18.4 °F 70% 30.08 in 10.0 mi SW 5.8 mph - N/A   Clear
7:38 AM -11.2 °F -24.8 °F -18.4 °F 70% 30.08 in 10.0 mi SSW 5.8 mph - N/A   Clear
7:58 AM -11.2 °F -24.8 °F -18.4 °F 70% 30.08 in 10.0 mi SSW 5.8 mph - N/A   Clear
8:18 AM -7.6 °F -22.1 °F -16.6 °F 65% 30.09 in 10.0 mi SW 6.9 mph - N/A   Clear
8:38 AM -5.8 °F -21.2 °F -14.8 °F 65% 30.09 in 10.0 mi WSW 8.1 mph - N/A   Clear
8:58 AM -5.8 °F -21.2 °F -14.8 °F 65% 30.09 in 10.0 mi SW 8.1 mph - N/A   Clear
9:18 AM -2.2 °F -18.0 °F -13.0 °F 60% 30.09 in 10.0 mi WSW 9.2 mph - N/A   Clear
9:38 AM -2.2 °F -20.7 °F -11.2 °F 66% 30.10 in 10.0 mi WSW 12.7 mph - N/A   Clear
9:58 AM -0.4 °F -18.4 °F -11.2 °F 60% 30.10 in 10.0 mi WSW 12.7 mph - N/A   Clear
10:18 AM 1.4 °F -15.3 °F -9.4 °F 61% 30.10 in 10.0 mi WSW 11.5 mph - N/A   Clear
10:38 AM 3.2 °F -15.3 °F -7.6 °F 61% 30.10 in 10.0 mi WSW 15.0 mph - N/A   Clear
10:58 AM 3.2 °F -15.9 °F -7.6 °F 61% 30.10 in 10.0 mi WSW 16.1 mph - N/A   Clear
11:18 AM 5.0 °F -13.0 °F -7.6 °F 56% 30.10 in 10.0 mi WSW 15.0 mph - N/A   Clear
11:38 AM 6.8 °F -8.6 °F -5.8 °F 56% 30.10 in 10.0 mi WSW 11.5 mph - N/A   Clear
11:58 AM 8.6 °F -8.3 °F -5.8 °F 52% 30.10 in 10.0 mi WSW 15.0 mph - N/A   Clear
12:18 PM 8.6 °F -9.5 °F -2.2 °F 62% 30.09 in 10.0 mi WSW 17.3 mph - N/A   Clear
12:38 PM 10.4 °F -7.7 °F -2.2 °F 57% 30.08 in 10.0 mi WSW 18.4 mph 23.0 mph N/A   Clear
12:58 PM 10.4 °F -6.6 °F -2.2 °F 57% 30.08 in 10.0 mi West 16.1 mph - N/A   Clear
1:18 PM 10.4 °F -4.8 °F -2.2 °F 57% 30.07 in 10.0 mi WSW 12.7 mph - N/A   Clear
1:38 PM 10.4 °F -6.0 °F -2.2 °F 57% 30.07 in 10.0 mi WSW 15.0 mph - N/A   Clear
1:58 PM 12.2 °F -2.5 °F -0.4 °F 57% 30.06 in 10.0 mi SW 12.7 mph - N/A   Clear
2:18 PM 10.4 °F -4.1 °F -2.2 °F 57% 30.05 in 10.0 mi SW 11.5 mph - N/A   Clear
2:38 PM 10.4 °F -5.4 °F -2.2 °F 57% 30.06 in 10.0 mi WSW 13.8 mph - N/A   Clear
2:58 PM 12.2 °F -2.5 °F -2.2 °F 53% 30.06 in 10.0 mi SW 12.7 mph 17.3 mph N/A   Clear
3:18 PM 10.4 °F -4.1 °F -2.2 °F 57% 30.06 in 10.0 mi SW 11.5 mph - N/A   Clear
3:38 PM 10.4 °F -2.4 °F -2.2 °F 57% 30.06 in 10.0 mi WSW 9.2 mph - N/A   Clear
3:58 PM 12.2 °F -0.2 °F -2.2 °F 53% 30.06 in 10.0 mi SW 9.2 mph - N/A   Clear
4:18 PM 10.4 °F -0.4 °F -2.2 °F 57% 30.06 in 10.0 mi SW 6.9 mph - N/A   Clear
4:38 PM 10.4 °F 0.8 °F -2.2 °F 57% 30.06 in 10.0 mi SW 5.8 mph - N/A   Clear
4:58 PM 8.6 °F -2.6 °F -2.2 °F 62% 30.06 in 10.0 mi SSW 6.9 mph - N/A   Clear
5:18 PM 6.8 °F -0.1 °F -2.2 °F 67% 30.06 in 10.0 mi South 3.5 mph - N/A   Clear
5:38 PM 6.8 °F -3.5 °F -2.2 °F 67% 30.06 in 10.0 mi South 5.8 mph - N/A   Clear
5:58 PM 3.2 °F -9.1 °F -4.0 °F 72% 30.07 in 10.0 mi South 6.9 mph - N/A   Clear
6:18 PM 1.4 °F -9.9 °F -5.8 °F 72% 30.07 in 10.0 mi South 5.8 mph - N/A   Clear
6:38 PM 1.4 °F -6.2 °F -5.8 °F 72% 30.07 in 10.0 mi South 3.5 mph - N/A   Clear
6:58 PM 1.4 °F -9.9 °F -4.0 °F 78% 30.07 in 10.0 mi South 5.8 mph - N/A   Clear
7:18 PM -0.4 °F -13.4 °F -5.8 °F 78% 30.07 in 10.0 mi South 6.9 mph - N/A   Clear
7:38 PM -0.4 °F -12.0 °F -5.8 °F 78% 30.07 in 10.0 mi South 5.8 mph - N/A   Clear
7:58 PM -0.4 °F -12.0 °F -5.8 °F 78% 30.07 in 10.0 mi South 5.8 mph - N/A   Clear
8:18 PM -0.4 °F -10.4 °F -7.6 °F 72% 30.07 in 10.0 mi South 4.6 mph - N/A   Clear
8:38 PM -0.4 °F -12.0 °F -7.6 °F 72% 30.06 in 10.0 mi South 5.8 mph - N/A   Clear
8:58 PM -2.2 °F -12.5 °F -7.6 °F 78% 30.06 in 10.0 mi SSE 4.6 mph - N/A   Clear
9:18 PM -0.4 °F -10.4 °F -5.8 °F 78% 30.06 in 10.0 mi SSE 4.6 mph - N/A   Clear
9:38 PM 1.4 °F -9.9 °F -5.8 °F 72% 30.05 in 10.0 mi SSE 5.8 mph - N/A   Clear
9:58 PM -2.2 °F -15.6 °F -7.6 °F 78% 30.05 in 10.0 mi SE 6.9 mph - N/A   Clear
10:18 PM -2.2 °F -15.6 °F -7.6 °F 78% 30.05 in 10.0 mi SE 6.9 mph - N/A   Clear
10:38 PM -4.0 °F -16.3 °F -7.6 °F 85% 30.04 in 10.0 mi SE 5.8 mph - N/A   Clear
10:58 PM -5.8 °F -16.7 °F -9.4 °F 84% 30.05 in 10.0 mi ESE 4.6 mph - N/A   Clear
11:18 PM -5.8 °F -18.4 °F -9.4 °F 84% 30.05 in 10.0 mi SE 5.8 mph - N/A   Clear
11:38 PM -4.0 °F -17.8 °F -7.6 °F 85% 30.05 in 10.0 mi SE 6.9 mph - N/A   Clear
11:58 PM -5.8 °F -18.4 °F -9.4 °F 84% 30.05 in 10.0 mi SE 5.8 mph - N/A   Clear